Dallas Redbird, TX

12:52 AM CST on February 20, 2018 (GMT -0600)
Redbird

Weather History for KRBD - January, 2014

Change the Weather History Date:

Saturday, January 18, 2014

  Actual Average Record
Temperature  
Mean Temperature 56 °F -  
Max Temperature 69 °F 55 °F 72 °F (2006)
Min Temperature 42 °F 36 °F 19 °F (2018)
Degree Days  
Heating Degree Days 10    
Growing Degree Days 6 (Base 50)    
Moisture  
Dew Point 23 °F    
Average Humidity 30    
Maximum Humidity 46    
Minimum Humidity 21    
Precipitation  
Precipitation 0.00 in - - ()
Sea Level Pressure  
Sea Level Pressure 30.12 in    
Wind  
Wind Speed 8 mph (WSW)    
Max Wind Speed 17 mph    
Max Gust Speed 28 mph    
Visibility 10 miles    
Events      
Averages and records for this station are not official NWS values.
T = Trace of Precipitation, MM = Missing Value Source: NWS Daily Summary

Daily Weather History Graph

Daily Weather History Graph

Search for Another Location

Airport or City:

Trip Planner

Search our weather history database for the weather conditions in past years. The results will help you decide how hot, cold, wet, or windy it might be!

Date:

Astronomy

Jan. 18, 2014 Rise Set
Actual Time 7:29 AM CST 5:47 PM CST
Civil Twilight 7:02 AM CST 6:13 PM CST
Nautical Twilight 6:32 AM CST 6:43 PM CST
Astronomical Twilight 6:02 AM CST 7:13 PM CST
Moon 8:19 PM CST (1/18) 8:39 AM CST (1/18)
Length of Visible Light 11h 11m
Length of Day
10h 18m
Waning Gibbous, 94% of the Moon is Illuminated
Jan 18
Waning Gibbous
Jan 23
Last Quarter
Jan 30
New
Feb 6
First Quarter
Feb 14
Full

Hourly Weather History & Observations

Time (CST) Temp. Windchill Dew Point Humidity Pressure Visibility Wind Dir Wind Speed Gust Speed Precip Events Conditions
12:53 AM 42.1 °F 38.4 °F 15.1 °F 34% 30.17 in 10.0 mi South 5.8 mph - N/A   Clear
1:53 AM 43.0 °F 39.5 °F 15.1 °F 32% 30.18 in 10.0 mi Variable 5.8 mph - N/A   Clear
2:53 AM 44.1 °F 41.5 °F 16.0 °F 32% 30.18 in 10.0 mi SSW 4.6 mph - N/A   Clear
3:53 AM 44.1 °F 40.8 °F 17.1 °F 34% 30.16 in 10.0 mi Variable 5.8 mph - N/A   Clear
4:53 AM 45.0 °F 41.8 °F 18.0 °F 34% 30.14 in 10.0 mi Variable 5.8 mph - N/A   Clear
5:53 AM 46.0 °F 41.9 °F 19.0 °F 34% 30.14 in 10.0 mi SSW 8.1 mph 17.3 mph N/A   Clear
6:53 AM 45.0 °F 41.2 °F 19.0 °F 36% 30.14 in 10.0 mi SSW 6.9 mph - N/A   Clear
7:53 AM 46.0 °F 41.9 °F 19.0 °F 34% 30.14 in 10.0 mi SW 8.1 mph 18.4 mph N/A   Clear
8:53 AM 51.1 °F - 19.9 °F 29% 30.14 in 10.0 mi SW 13.8 mph 23.0 mph N/A   Clear
9:53 AM 54.0 °F - 21.0 °F 28% 30.16 in 10.0 mi SW 13.8 mph 24.2 mph N/A   Clear
10:53 AM 59.0 °F - 23.0 °F 25% 30.16 in 10.0 mi SW 9.2 mph 23.0 mph N/A   Clear
11:53 AM 62.1 °F - 21.9 °F 21% 30.12 in 10.0 mi SW 16.1 mph 27.6 mph N/A   Clear
12:53 PM 64.0 °F - 24.1 °F 22% 30.08 in 10.0 mi SW 12.7 mph 24.2 mph N/A   Clear
1:53 PM 66.0 °F - 25.0 °F 21% 30.04 in 10.0 mi WSW 17.3 mph 23.0 mph N/A   Clear
2:53 PM 68.0 °F - 28.0 °F 22% 30.03 in 10.0 mi SW 10.4 mph 17.3 mph N/A   Clear
3:53 PM 69.1 °F - 28.0 °F 22% 30.02 in 10.0 mi WSW 8.1 mph 16.1 mph N/A   Clear
4:53 PM 68.0 °F - 27.0 °F 21% 30.04 in 10.0 mi West 9.2 mph 18.4 mph N/A   Clear
5:53 PM 63.0 °F - 27.0 °F 26% 30.05 in 10.0 mi West 5.8 mph - N/A   Clear
6:53 PM 57.0 °F - 28.0 °F 33% 30.05 in 10.0 mi WSW 5.8 mph - N/A   Clear
7:53 PM 57.9 °F - 28.0 °F 32% 30.08 in 10.0 mi West 8.1 mph - N/A   Clear
8:53 PM 55.0 °F - 28.0 °F 35% 30.11 in 10.0 mi West 8.1 mph - N/A   Clear
9:53 PM 53.1 °F - 28.0 °F 38% 30.14 in 10.0 mi NNW 6.9 mph - N/A   Clear
10:53 PM 51.1 °F - 27.0 °F 39% 30.16 in 10.0 mi North 8.1 mph - N/A   Clear
11:53 PM 48.0 °F - 28.0 °F 46% 30.16 in 10.0 mi North 8.1 mph - N/A   Clear